Overview Statistics Trail Chart Weather Telemetry Raw packets
 

This is the latest recevied weather packets stored in our database for station/object N1YZ. If no packets are shown the sender has not sent any weather packets the latest 10 day(s).

<< 105 106 107 108 109 110 111 >>
Time Temp. Humidity Pressure Rain* Wind** Luminosity Snow
1787858724 28.33° C 79% 1034.5 hPa 0 mm - 159 W/m² -
1787858414 28.33° C 79% 1034.5 hPa 0 mm - 151 W/m² -
1787858108 27.78° C 81% 1034.6 hPa 0 mm - 149 W/m² -
1787857803 28.33° C 83% 1034.6 hPa 0 mm - 161 W/m² -
1787857499 28.33° C 81% 1034.8 hPa 0 mm - 156 W/m² -
1787857197 28.33° C 80% 1034.8 hPa 0 mm - 156 W/m² -
1787856892 28.33° C 82% 1034.8 hPa 0 mm - 159 W/m² -
1787856591 28.33° C 82% 1034.6 hPa 0 mm - 155 W/m² -
1787856287 28.33° C 80% 1034.7 hPa 0 mm - 147 W/m² -
1787855983 28.33° C 78% 1034.7 hPa 0 mm - 151 W/m² -
1787855682 28.33° C 81% 1034.5 hPa 0 mm - 150 W/m² -
1787855377 28.33° C 80% 1034.7 hPa 0 mm - 173 W/m² -
1787855072 28.33° C 79% 1034.7 hPa 0 mm - 180 W/m² -
1787854768 28.33° C 78% 1034.8 hPa 0 mm - 209 W/m² -
1787854467 28.89° C 80% 1035.1 hPa 0 mm - 201 W/m² -
1787854162 28.33° C 80% 1034.7 hPa 0 mm - 185 W/m² -
1787853857 28.89° C 80% 1035.1 hPa 0 mm - 219 W/m² -
1787853555 28.89° C 80% 1035 hPa 0 mm - 280 W/m² -
1787853250 29.44° C 79% 1034.8 hPa 0 mm - 169 W/m² -
1787852950 29.44° C 77% 1034.7 hPa 0 mm - 524 W/m² -
1787852644 29.44° C 77% 1034.6 hPa 0 mm - 524 W/m² -
1787852344 29.44° C 77% 1034.8 hPa 0 mm - 548 W/m² -
1787852043 29.44° C 75% 1035 hPa 0 mm - 511 W/m² -
1787851740 29.44° C 76% 1034.7 hPa 0 mm - 475 W/m² -
1787851432 28.89° C 77% 1034.6 hPa 0 mm - 584 W/m² -

* Rain latest hour (hover to see other rain measurements)
** Current wind speed in m/s (hover to see current wind gust speed)